When you browse on this site, cookies collect data to enhance your experience and personalize the content and advertising you see.
Visit our Privacy Policy to learn more. By continuing to use the site, you agree to this use of cookies and data.
  • In Romania
  • List of Countries
  • For 7 days
  • Water Temperature
  • Weather Map
  • Weather Widgets
  • user-avatar
    Login

    Hourly Weather Stirling

    Today, 14 December, Saturday

    Time Temperature Precipitation Wind Pressure Humidity
    00:00 +2°C° 0 mm 3 mps 728 mmHg 94%
    01:00 +2°C° 0.2 mm 3 mps 728 mmHg 93%
    02:00 +2°C° 0.2 mm 3 mps 728 mmHg 93%
    03:00 +3°C° 0.2 mm 4 mps 728 mmHg 93%
    04:00 +3°C° 0.1 mm 4 mps 728 mmHg 91%
    05:00 +3°C° 0.1 mm 3 mps 728 mmHg 90%
    06:00 +3°C° 0.1 mm 3 mps 728 mmHg 89%
    07:00 +3°C° 0.5 mm 4 mps 729 mmHg 90%
    08:00 +1°C° 0.5 mm 4 mps 729 mmHg 92%
    09:00 +1°C° 0.5 mm 4 mps 729 mmHg 93%
    10:00 +2°C° 0.2 mm 5 mps 729 mmHg 91%
    11:00 +2°C° 0.2 mm 6 mps 729 mmHg 88%
    12:00 +2°C° 0.2 mm 7 mps 729 mmHg 86%
    13:00 +1°C° 0.9 mm 8 mps 729 mmHg 88%
    14:00 0°C° 0.9 mm 9 mps 729 mmHg 89%
    15:00 0°C° 0.9 mm 10 mps 729 mmHg 91%
    16:00 0°C° 0.8 mm 9 mps 730 mmHg 89%
    17:00 +1°C° 0.8 mm 9 mps 730 mmHg 86%
    18:00 +1°C° 0.8 mm 9 mps 730 mmHg 83%
    19:00 +1°C° 0.9 mm 8 mps 730 mmHg 85%
    20:00 0°C° 0.9 mm 7 mps 731 mmHg 87%
    21:00 +1°C° 0.9 mm 6 mps 731 mmHg 89%
    22:00 +1°C° 0 mm 4 mps 731 mmHg 90%
    23:00 +1°C° 0 mm 3 mps 731 mmHg 91%

    Tomorrow, 15 December, Sunday

    Time Temperature Precipitation Wind Pressure Humidity
    00:00 +2°C° 0 mm 2 mps 731 mmHg 92%
    01:00 +2°C° 0 mm 2 mps 732 mmHg 92%
    02:00 +1°C° 0 mm 2 mps 732 mmHg 91%
    03:00 +1°C° 0 mm 2 mps 732 mmHg 91%
    04:00 +1°C° 0 mm 2 mps 732 mmHg 91%
    05:00 +1°C° 0 mm 2 mps 733 mmHg 90%
    06:00 +1°C° 0 mm 2 mps 733 mmHg 90%
    07:00 +1°C° 0 mm 2 mps 734 mmHg 88%
    08:00 0°C° 0 mm 3 mps 735 mmHg 87%
    09:00 0°C° 0 mm 3 mps 736 mmHg 86%
    10:00 +1°C° 0 mm 3 mps 736 mmHg 82%
    11:00 0°C° 0 mm 4 mps 737 mmHg 79%
    12:00 +1°C° 0 mm 4 mps 737 mmHg 75%
    13:00 0°C° 0 mm 4 mps 737 mmHg 76%
    14:00 +1°C° 0 mm 3 mps 737 mmHg 76%
    15:00 +1°C° 0 mm 3 mps 738 mmHg 77%
    16:00 0°C° 0 mm 3 mps 738 mmHg 81%
    17:00 +1°C° 0 mm 2 mps 738 mmHg 85%
    18:00 +1°C° 0 mm 2 mps 738 mmHg 88%
    19:00 +1°C° 0 mm 2 mps 738 mmHg 90%
    20:00 +2°C° 0 mm 2 mps 738 mmHg 92%
    21:00 +2°C° 0 mm 2 mps 738 mmHg 93%
    22:00 +2°C° 0.1 mm 2 mps 738 mmHg 93%
    23:00 +2°C° 0.1 mm 2 mps 738 mmHg 92%

    Day after tomorrow, 16 December, Monday

    Time Temperature Precipitation Wind Pressure Humidity
    00:00 +2°C° 0.1 mm 2 mps 738 mmHg 91%
    01:00 +2°C° 0.2 mm 2 mps 738 mmHg 90%
    02:00 +2°C° 0.2 mm 2 mps 738 mmHg 90%
    03:00 +2°C° 0.2 mm 2 mps 738 mmHg 89%
    04:00 +2°C° 0.1 mm 2 mps 738 mmHg 90%
    05:00 +2°C° 0.1 mm 2 mps 738 mmHg 91%
    06:00 +2°C° 0.1 mm 2 mps 738 mmHg 92%
    07:00 +2°C° 0 mm 2 mps 738 mmHg 93%
    08:00 +2°C° 0 mm 2 mps 739 mmHg 93%
    09:00 +2°C° 0 mm 2 mps 739 mmHg 93%
    10:00 +2°C° 0 mm 2 mps 739 mmHg 93%
    11:00 +3°C° 0 mm 2 mps 739 mmHg 92%
    12:00 +2°C° 0 mm 3 mps 739 mmHg 91%
    13:00 +3°C° 0.1 mm 3 mps 740 mmHg 91%
    14:00 +3°C° 0.1 mm 4 mps 740 mmHg 90%
    15:00 +4°C° 0.1 mm 4 mps 740 mmHg 90%
    16:00 +3°C° 0.1 mm 5 mps 740 mmHg 89%
    17:00 +3°C° 0.1 mm 5 mps 740 mmHg 88%
    18:00 +3°C° 0.1 mm 5 mps 741 mmHg 87%
    19:00 +2°C° 0 mm 5 mps 741 mmHg 88%
    20:00 +2°C° 0 mm 5 mps 741 mmHg 88%
    21:00 +2°C° 0 mm 5 mps 742 mmHg 89%
    22:00 +2°C° 0 mm 5 mps 742 mmHg 88%
    23:00 +2°C° 0 mm 5 mps 742 mmHg 88%

    17 December, Tuesday

    Time Temperature Precipitation Wind Pressure Humidity
    00:00 +2°C° 0 mm 6 mps 742 mmHg 88%
    01:00 +2°C° 0.3 mm 5 mps 743 mmHg 90%
    02:00 +2°C° 0.3 mm 5 mps 743 mmHg 92%
    03:00 +3°C° 0.3 mm 4 mps 744 mmHg 93%
    04:00 +3°C° 0.1 mm 4 mps 744 mmHg 94%
    05:00 +2°C° 0.1 mm 3 mps 744 mmHg 94%
    06:00 +2°C° 0.1 mm 3 mps 744 mmHg 94%
    07:00 +2°C° 0 mm 3 mps 745 mmHg 94%
    08:00 +2°C° 0 mm 2 mps 746 mmHg 94%
    09:00 +2°C° 0 mm 2 mps 746 mmHg 94%
    10:00 +3°C° 0 mm 2 mps 747 mmHg 92%
    11:00 +3°C° 0 mm 2 mps 747 mmHg 90%
    12:00 +4°C° 0 mm 2 mps 747 mmHg 88%
    13:00 +3°C° 0 mm 2 mps 748 mmHg 88%
    14:00 +3°C° 0 mm 2 mps 748 mmHg 89%
    15:00 +2°C° 0 mm 2 mps 748 mmHg 89%
    16:00 +2°C° 0 mm 2 mps 749 mmHg 89%
    17:00 +2°C° 0 mm 2 mps 749 mmHg 89%
    18:00 +2°C° 0 mm 1 mps 750 mmHg 89%
    19:00 +2°C° 0 mm 1 mps 750 mmHg 89%
    20:00 +2°C° 0 mm 1 mps 751 mmHg 89%
    21:00 +2°C° 0 mm 1 mps 751 mmHg 90%
    22:00 +2°C° 0 mm 1 mps 751 mmHg 90%
    23:00 +2°C° 0 mm 1 mps 752 mmHg 90%

    18 December, Wednesday

    Time Temperature Precipitation Wind Pressure Humidity
    00:00 +2°C° 0 mm 1 mps 752 mmHg 90%
    01:00 +2°C° 0 mm 1 mps 752 mmHg 91%
    02:00 +2°C° 0 mm 1 mps 752 mmHg 92%
    03:00 +3°C° 0 mm 1 mps 753 mmHg 93%
    04:00 +3°C° 0 mm 1 mps 753 mmHg 93%
    05:00 +2°C° 0 mm 1 mps 753 mmHg 94%
    06:00 +2°C° 0 mm 1 mps 753 mmHg 94%
    07:00 +2°C° 0 mm 1 mps 754 mmHg 94%
    08:00 +2°C° 0 mm 1 mps 754 mmHg 93%
    09:00 +2°C° 0 mm 1 mps 755 mmHg 93%
    10:00 +2°C° 0 mm 1 mps 755 mmHg 92%
    11:00 +3°C° 0 mm 1 mps 755 mmHg 91%
    12:00 +3°C° 0 mm 0 mps 755 mmHg 90%
    13:00 +2°C° 0 mm 0 mps 755 mmHg 90%
    14:00 +2°C° 0 mm 0 mps 755 mmHg 91%
    15:00 +2°C° 0 mm 0 mps 755 mmHg 92%
    16:00 +2°C° 0 mm 1 mps 755 mmHg 92%
    17:00 +2°C° 0 mm 1 mps 755 mmHg 92%
    18:00 +2°C° 0 mm 1 mps 755 mmHg 92%
    19:00 +2°C° 0 mm 1 mps 755 mmHg 92%
    20:00 +1°C° 0 mm 1 mps 755 mmHg 92%
    21:00 -1°C° 0 mm 2 mps 755 mmHg 92%
    22:00 -1°C° 0 mm 2 mps 755 mmHg 91%
    23:00 -1°C° 0 mm 2 mps 754 mmHg 91%

    19 December, Thursday

    Time Temperature Precipitation Wind Pressure Humidity
    00:00 -1°C° 0 mm 2 mps 754 mmHg 90%
    01:00 +1°C° 0 mm 2 mps 753 mmHg 88%
    02:00 0°C° 0 mm 3 mps 753 mmHg 86%
    03:00 0°C° 0 mm 3 mps 752 mmHg 84%
    04:00 -1°C° 0 mm 4 mps 752 mmHg 84%
    05:00 0°C° 0 mm 4 mps 751 mmHg 83%
    06:00 0°C° 0 mm 4 mps 750 mmHg 83%
    07:00 0°C° 0 mm 5 mps 750 mmHg 83%
    08:00 +1°C° 0 mm 6 mps 749 mmHg 83%
    09:00 +1°C° 0 mm 6 mps 749 mmHg 83%
    10:00 +2°C° 0.1 mm 6 mps 748 mmHg 85%
    11:00 +2°C° 0.1 mm 6 mps 747 mmHg 87%
    12:00 +2°C° 0.1 mm 6 mps 747 mmHg 88%
    13:00 +3°C° 0.7 mm 5 mps 747 mmHg 90%
    14:00 +3°C° 0.7 mm 5 mps 746 mmHg 92%
    15:00 +4°C° 0.7 mm 4 mps 746 mmHg 94%
    16:00 +4°C° 0.7 mm 4 mps 746 mmHg 95%
    17:00 +4°C° 0.7 mm 3 mps 746 mmHg 95%
    18:00 +5°C° 0.7 mm 2 mps 745 mmHg 96%
    19:00 +5°C° 0.8 mm 2 mps 745 mmHg 96%
    20:00 +5°C° 0.8 mm 2 mps 745 mmHg 97%
    21:00 +6°C° 0.8 mm 1 mps 745 mmHg 98%
    22:00 +5°C° 0.2 mm 1 mps 745 mmHg 98%
    23:00 +5°C° 0.2 mm 1 mps 745 mmHg 98%
    Show more